Time,TemperatureF,DewpointF,PressureIn,WindDirection,WindDirectionDegrees,WindSpeedMPH,WindSpeedGustMPH,Humidity,HourlyPrecipIn,Conditions,Clouds,dailyrainin,SoftwareType,DateUTC
2013-08-10 00:01:00,65.9,57.1,30.17,ESE,110,0.0,1.0,73,0.00,,,0.00,WUHU216DAVISVP2,2013-08-10 05:01:00,
2013-08-10 00:06:00,65.6,57.2,30.17,ESE,110,0.0,1.0,74,0.00,,,0.00,WUHU216DAVISVP2,2013-08-10 05:06:00,
2013-08-10 00:11:00,65.3,57.3,30.17,SE,126,0.0,1.0,75,0.00,,,0.00,WUHU216DAVISVP2,2013-08-10 05:11:00,
2013-08-10 00:16:00,65.0,57.4,30.16,SE,126,0.0,1.0,76,0.00,,,0.00,WUHU216DAVISVP2,2013-08-10 05:16:00,
2013-08-10 00:21:00,64.8,57.1,30.16,SE,126,0.0,1.0,76,0.00,,,0.00,WUHU216DAVISVP2,2013-08-10 05:21:00,
2013-08-10 00:26:00,64.7,57.3,30.16,SE,126,0.0,1.0,77,0.00,,,0.00,WUHU216DAVISVP2,2013-08-10 05:26:00,
2013-08-10 00:31:00,64.6,57.3,30.16,ESE,112,0.0,1.0,77,0.00,,,0.00,WUHU216DAVISVP2,2013-08-10 05:31:00,
2013-08-10 00:36:00,64.3,57.4,30.16,ESE,103,0.0,1.0,78,0.00,,,0.00,WUHU216DAVISVP2,2013-08-10 05:36:00,
2013-08-10 00:41:00,64.2,57.3,30.16,ESE,103,0.0,1.0,78,0.00,,,0.00,WUHU216DAVISVP2,2013-08-10 05:41:00,
2013-08-10 00:46:00,64.0,57.1,30.16,ESE,103,0.0,1.0,78,0.00,,,0.00,WUHU216DAVISVP2,2013-08-10 05:46:00,
2013-08-10 00:51:00,63.8,57.2,30.16,ESE,107,0.0,1.0,79,0.00,,,0.00,WUHU216DAVISVP2,2013-08-10 05:51:00,
2013-08-10 00:56:00,63.7,57.1,30.16,SE,140,0.0,1.0,79,0.00,,,0.00,WUHU216DAVISVP2,2013-08-10 05:56:00,
2013-08-10 01:01:00,63.5,56.9,30.16,East,96,0.0,1.0,79,0.00,,,0.00,WUHU216DAVISVP2,2013-08-10 06:01:00,
2013-08-10 01:06:00,63.4,57.2,30.16,East,96,0.0,1.0,80,0.00,,,0.00,WUHU216DAVISVP2,2013-08-10 06:06:00,
2013-08-10 01:11:00,63.2,57.0,30.16,SE,134,0.0,1.0,80,0.00,,,0.00,WUHU216DAVISVP2,2013-08-10 06:11:00,
2013-08-10 01:16:00,63.0,56.8,30.16,SE,134,0.0,1.0,80,0.00,,,0.00,WUHU216DAVISVP2,2013-08-10 06:16:00,
2013-08-10 01:21:00,62.8,56.9,30.16,SE,134,0.0,1.0,81,0.00,,,0.00,WUHU216DAVISVP2,2013-08-10 06:21:00,
2013-08-10 01:26:00,62.6,56.7,30.16,SE,134,0.0,1.0,81,0.00,,,0.00,WUHU216DAVISVP2,2013-08-10 06:26:00,
2013-08-10 01:31:00,62.5,56.6,30.17,SE,134,0.0,1.0,81,0.00,,,0.00,WUHU216DAVISVP2,2013-08-10 06:31:00,
2013-08-10 01:36:00,62.4,56.8,30.17,SE,134,0.0,1.0,82,0.00,,,0.00,WUHU216DAVISVP2,2013-08-10 06:36:00,
2013-08-10 01:41:00,62.2,56.7,30.17,SE,133,0.0,1.0,82,0.00,,,0.00,WUHU216DAVISVP2,2013-08-10 06:41:00,
2013-08-10 01:46:00,62.2,56.7,30.17,SE,132,0.0,1.0,82,0.00,,,0.00,WUHU216DAVISVP2,2013-08-10 06:46:00,
2013-08-10 01:51:00,62.2,56.7,30.17,SE,131,0.0,1.0,82,0.00,,,0.00,WUHU216DAVISVP2,2013-08-10 06:51:00,
2013-08-10 01:56:00,62.1,56.6,30.17,ENE,67,0.0,1.0,82,0.00,,,0.00,WUHU216DAVISVP2,2013-08-10 06:56:00,
2013-08-10 02:01:00,62.0,56.5,30.17,ENE,67,0.0,1.0,82,0.00,,,0.00,WUHU216DAVISVP2,2013-08-10 07:01:00,
2013-08-10 02:06:00,61.8,56.3,30.17,ENE,67,0.0,1.0,82,0.00,,,0.00,WUHU216DAVISVP2,2013-08-10 07:06:00,
2013-08-10 02:11:00,61.7,56.2,30.17,ENE,67,0.0,1.0,82,0.00,,,0.00,WUHU216DAVISVP2,2013-08-10 07:11:00,
2013-08-10 02:16:00,61.8,56.6,30.17,ENE,67,0.0,1.0,83,0.00,,,0.00,WUHU216DAVISVP2,2013-08-10 07:16:00,
2013-08-10 02:21:00,61.7,56.2,30.17,ENE,67,0.0,1.0,82,0.00,,,0.00,WUHU216DAVISVP2,2013-08-10 07:21:00,
2013-08-10 02:26:00,61.6,56.4,30.17,ENE,67,0.0,1.0,83,0.00,,,0.00,WUHU216DAVISVP2,2013-08-10 07:26:00,
2013-08-10 02:31:00,61.5,56.3,30.17,ENE,67,0.0,1.0,83,0.00,,,0.00,WUHU216DAVISVP2,2013-08-10 07:31:00,
2013-08-10 02:36:00,61.4,56.2,30.17,ENE,68,0.0,1.0,83,0.00,,,0.00,WUHU216DAVISVP2,2013-08-10 07:36:00,
2013-08-10 02:41:00,61.3,56.1,30.17,East,82,0.0,1.0,83,0.00,,,0.00,WUHU216DAVISVP2,2013-08-10 07:41:00,
2013-08-10 02:46:00,61.3,56.1,30.17,East,82,0.0,1.0,83,0.00,,,0.00,WUHU216DAVISVP2,2013-08-10 07:46:00,
2013-08-10 02:51:00,61.4,56.2,30.17,East,83,0.0,1.0,83,0.00,,,0.00,WUHU216DAVISVP2,2013-08-10 07:51:00,
2013-08-10 02:56:00,61.4,55.9,30.17,ENE,71,0.0,1.0,82,0.00,,,0.00,WUHU216DAVISVP2,2013-08-10 07:56:00,
2013-08-10 03:01:00,61.5,56.0,30.17,ENE,74,0.0,1.0,82,0.00,,,0.00,WUHU216DAVISVP2,2013-08-10 08:01:00,
2013-08-10 03:06:00,61.5,56.0,30.17,ESE,120,0.0,1.0,82,0.00,,,0.00,WUHU216DAVISVP2,2013-08-10 08:06:00,
2013-08-10 03:11:00,61.4,55.6,30.17,ESE,120,0.0,1.0,81,0.00,,,0.00,WUHU216DAVISVP2,2013-08-10 08:11:00,
2013-08-10 03:16:00,61.4,55.9,30.17,ESE,120,0.0,1.0,82,0.00,,,0.00,WUHU216DAVISVP2,2013-08-10 08:16:00,
2013-08-10 03:21:00,61.4,55.6,30.17,SE,126,0.0,1.0,81,0.00,,,0.00,WUHU216DAVISVP2,2013-08-10 08:21:00,
2013-08-10 03:26:00,61.4,55.6,30.17,SE,126,0.0,1.0,81,0.00,,,0.00,WUHU216DAVISVP2,2013-08-10 08:26:00,
2013-08-10 03:31:00,61.4,55.6,30.17,SE,126,0.0,1.0,81,0.00,,,0.00,WUHU216DAVISVP2,2013-08-10 08:31:00,
2013-08-10 03:36:00,61.3,55.5,30.18,SE,139,0.0,1.0,81,0.00,,,0.00,WUHU216DAVISVP2,2013-08-10 08:36:00,
2013-08-10 03:41:00,61.3,55.5,30.18,SE,139,0.0,1.0,81,0.00,,,0.00,WUHU216DAVISVP2,2013-08-10 08:41:00,
2013-08-10 03:46:00,61.2,55.7,30.18,SE,139,0.0,1.0,82,0.00,,,0.00,WUHU216DAVISVP2,2013-08-10 08:46:00,
2013-08-10 03:51:00,61.2,55.7,30.18,SE,138,0.0,1.0,82,0.00,,,0.00,WUHU216DAVISVP2,2013-08-10 08:51:00,
2013-08-10 03:56:00,61.0,55.5,30.18,SE,138,0.0,1.0,82,0.00,,,0.00,WUHU216DAVISVP2,2013-08-10 08:56:00,
2013-08-10 04:01:00,61.0,55.5,30.18,SE,138,0.0,1.0,82,0.00,,,0.00,WUHU216DAVISVP2,2013-08-10 09:01:00,
2013-08-10 04:06:00,61.0,55.5,30.18,SE,138,0.0,1.0,82,0.00,,,0.00,WUHU216DAVISVP2,2013-08-10 09:06:00,
2013-08-10 04:11:00,61.0,55.5,30.18,SE,138,0.0,1.0,82,0.00,,,0.00,WUHU216DAVISVP2,2013-08-10 09:11:00,
2013-08-10 04:16:00,61.0,55.5,30.18,ESE,123,0.0,1.0,82,0.00,,,0.00,WUHU216DAVISVP2,2013-08-10 09:16:00,
2013-08-10 04:21:00,61.0,55.5,30.18,SE,127,0.0,1.0,82,0.00,,,0.00,WUHU216DAVISVP2,2013-08-10 09:21:00,
2013-08-10 04:26:00,61.0,55.5,30.18,ESE,123,0.0,1.0,82,0.00,,,0.00,WUHU216DAVISVP2,2013-08-10 09:26:00,
2013-08-10 04:31:00,60.9,55.4,30.18,ESE,123,0.0,1.0,82,0.00,,,0.00,WUHU216DAVISVP2,2013-08-10 09:31:00,
2013-08-10 04:36:00,60.7,55.5,30.18,ESE,123,0.0,1.0,83,0.00,,,0.00,WUHU216DAVISVP2,2013-08-10 09:36:00,
2013-08-10 04:41:00,60.6,55.4,30.18,ESE,123,0.0,1.0,83,0.00,,,0.00,WUHU216DAVISVP2,2013-08-10 09:41:00,
2013-08-10 04:46:00,60.5,55.3,30.18,ESE,123,0.0,1.0,83,0.00,,,0.00,WUHU216DAVISVP2,2013-08-10 09:46:00,
2013-08-10 04:51:00,60.3,55.1,30.18,ESE,122,0.0,1.0,83,0.00,,,0.00,WUHU216DAVISVP2,2013-08-10 09:51:00,
2013-08-10 04:56:00,60.4,55.2,30.18,ESE,120,0.0,1.0,83,0.00,,,0.00,WUHU216DAVISVP2,2013-08-10 09:56:00,
2013-08-10 05:01:00,60.3,55.4,30.18,ESE,120,0.0,1.0,84,0.00,,,0.00,WUHU216DAVISVP2,2013-08-10 10:01:00,
2013-08-10 05:06:00,60.2,55.3,30.18,ESE,120,0.0,1.0,84,0.00,,,0.00,WUHU216DAVISVP2,2013-08-10 10:06:00,
2013-08-10 05:11:00,60.0,55.2,30.18,ESE,121,0.0,1.0,84,0.00,,,0.00,WUHU216DAVISVP2,2013-08-10 10:11:00,
2013-08-10 05:16:00,59.9,55.1,30.17,ESE,121,0.0,1.0,84,0.00,,,0.00,WUHU216DAVISVP2,2013-08-10 10:16:00,
2013-08-10 05:21:00,59.7,54.9,30.17,ESE,120,0.0,1.0,84,0.00,,,0.00,WUHU216DAVISVP2,2013-08-10 10:21:00,
2013-08-10 05:26:00,59.7,54.9,30.17,East,92,0.0,1.0,84,0.00,,,0.00,WUHU216DAVISVP2,2013-08-10 10:26:00,
2013-08-10 05:31:00,59.6,54.8,30.17,East,92,0.0,1.0,84,0.00,,,0.00,WUHU216DAVISVP2,2013-08-10 10:31:00,
2013-08-10 05:36:00,59.5,54.7,30.18,East,92,0.0,1.0,84,0.00,,,0.00,WUHU216DAVISVP2,2013-08-10 10:36:00,
2013-08-10 05:41:00,59.6,54.8,30.18,East,92,0.0,1.0,84,0.00,,,0.00,WUHU216DAVISVP2,2013-08-10 10:41:00,
2013-08-10 05:46:00,59.6,54.8,30.18,East,92,0.0,1.0,84,0.00,,,0.00,WUHU216DAVISVP2,2013-08-10 10:46:00,
2013-08-10 05:51:00,59.5,54.7,30.18,East,92,0.0,1.0,84,0.00,,,0.00,WUHU216DAVISVP2,2013-08-10 10:51:00,
2013-08-10 05:56:00,59.4,54.6,30.18,East,92,0.0,1.0,84,0.00,,,0.00,WUHU216DAVISVP2,2013-08-10 10:56:00,
2013-08-10 06:01:00,59.3,54.5,30.18,East,93,0.0,1.0,84,0.00,,,0.00,WUHU216DAVISVP2,2013-08-10 11:01:00,
2013-08-10 06:06:00,59.3,54.5,30.18,East,93,0.0,1.0,84,0.00,,,0.00,WUHU216DAVISVP2,2013-08-10 11:06:00,
2013-08-10 06:11:00,59.3,54.5,30.18,East,93,1.0,1.0,84,0.00,,,0.00,WUHU216DAVISVP2,2013-08-10 11:11:00,
2013-08-10 06:16:00,59.3,54.5,30.18,East,93,0.0,1.0,84,0.00,,,0.00,WUHU216DAVISVP2,2013-08-10 11:16:00,
2013-08-10 06:21:00,59.3,54.5,30.18,East,94,0.0,1.0,84,0.00,,,0.00,WUHU216DAVISVP2,2013-08-10 11:21:00,
2013-08-10 06:26:00,59.3,54.5,30.18,East,94,0.0,1.0,84,0.00,,,0.00,WUHU216DAVISVP2,2013-08-10 11:26:00,
2013-08-10 06:31:00,59.2,54.4,30.18,East,97,0.0,1.0,84,0.00,,,0.00,WUHU216DAVISVP2,2013-08-10 11:31:00,
2013-08-10 06:36:00,59.2,54.4,30.18,East,97,0.0,1.0,84,0.00,,,0.00,WUHU216DAVISVP2,2013-08-10 11:36:00,
2013-08-10 06:41:00,59.3,54.5,30.18,East,97,0.0,1.0,84,0.00,,,0.00,WUHU216DAVISVP2,2013-08-10 11:41:00,
2013-08-10 06:46:00,59.4,54.6,30.18,East,96,0.0,1.0,84,0.00,,,0.00,WUHU216DAVISVP2,2013-08-10 11:46:00,
2013-08-10 06:51:00,59.5,54.7,30.18,East,101,0.0,1.0,84,0.00,,,0.00,WUHU216DAVISVP2,2013-08-10 11:51:00,
2013-08-10 06:56:00,59.5,54.7,30.18,ESE,117,0.0,1.0,84,0.00,,,0.00,WUHU216DAVISVP2,2013-08-10 11:56:00,
2013-08-10 07:01:00,59.5,54.7,30.18,ESE,117,0.0,1.0,84,0.00,,,0.00,WUHU216DAVISVP2,2013-08-10 12:01:00,
2013-08-10 07:06:00,59.6,54.8,30.18,ESE,109,0.0,1.0,84,0.00,,,0.00,WUHU216DAVISVP2,2013-08-10 12:06:00,
2013-08-10 07:11:00,59.7,54.9,30.18,ESE,109,0.0,1.0,84,0.00,,,0.00,WUHU216DAVISVP2,2013-08-10 12:11:00,
2013-08-10 07:16:00,59.8,55.0,30.18,East,98,0.0,1.0,84,0.00,,,0.00,WUHU216DAVISVP2,2013-08-10 12:16:00,
2013-08-10 07:21:00,60.0,55.2,30.19,ESE,104,0.0,1.0,84,0.00,,,0.00,WUHU216DAVISVP2,2013-08-10 12:21:00,
2013-08-10 07:26:00,60.1,55.3,30.19,ESE,104,0.0,1.0,84,0.00,,,0.00,WUHU216DAVISVP2,2013-08-10 12:26:00,
2013-08-10 07:31:00,60.3,55.1,30.19,ENE,77,0.0,1.0,83,0.00,,,0.00,WUHU216DAVISVP2,2013-08-10 12:31:00,
2013-08-10 07:36:00,60.4,55.2,30.19,ENE,77,0.0,1.0,83,0.00,,,0.00,WUHU216DAVISVP2,2013-08-10 12:36:00,
2013-08-10 07:41:00,60.5,55.3,30.19,ENE,77,0.0,1.0,83,0.00,,,0.00,WUHU216DAVISVP2,2013-08-10 12:41:00,
2013-08-10 07:46:00,60.5,55.3,30.20,ENE,77,0.0,1.0,83,0.00,,,0.00,WUHU216DAVISVP2,2013-08-10 12:46:00,
2013-08-10 07:51:00,60.7,55.2,30.19,East,83,0.0,1.0,82,0.00,,,0.00,WUHU216DAVISVP2,2013-08-10 12:51:00,
2013-08-10 07:56:00,60.8,55.3,30.19,East,83,0.0,1.0,82,0.00,,,0.00,WUHU216DAVISVP2,2013-08-10 12:56:00,
2013-08-10 08:01:00,61.0,55.8,30.19,East,83,0.0,1.0,83,0.00,,,0.00,WUHU216DAVISVP2,2013-08-10 13:01:00,
2013-08-10 08:06:00,61.0,55.5,30.18,East,83,0.0,1.0,82,0.00,,,0.00,WUHU216DAVISVP2,2013-08-10 13:06:00,
2013-08-10 08:11:00,61.1,55.6,30.19,East,83,0.0,1.0,82,0.00,,,0.00,WUHU216DAVISVP2,2013-08-10 13:11:00,
2013-08-10 08:16:00,62.1,56.3,30.19,East,80,0.0,1.0,81,0.00,,,0.00,WUHU216DAVISVP2,2013-08-10 13:16:00,
2013-08-10 08:21:00,62.3,56.1,30.19,ENE,72,0.0,1.0,80,0.00,,,0.00,WUHU216DAVISVP2,2013-08-10 13:21:00,
2013-08-10 08:26:00,62.3,56.1,30.19,East,81,0.0,1.0,80,0.00,,,0.00,WUHU216DAVISVP2,2013-08-10 13:26:00,
2013-08-10 08:31:00,62.4,56.2,30.19,East,81,0.0,1.0,80,0.00,,,0.00,WUHU216DAVISVP2,2013-08-10 13:31:00,
2013-08-10 08:36:00,62.4,56.2,30.19,East,82,0.0,1.0,80,0.00,,,0.00,WUHU216DAVISVP2,2013-08-10 13:36:00,
2013-08-10 08:41:00,62.5,56.3,30.19,East,92,3.0,3.0,80,0.00,,,0.00,WUHU216DAVISVP2,2013-08-10 13:41:00,
2013-08-10 08:46:00,62.2,56.0,30.19,East,82,1.0,4.0,80,0.00,,,0.00,WUHU216DAVISVP2,2013-08-10 13:46:00,
2013-08-10 08:51:00,62.3,56.4,30.19,East,85,0.0,4.0,81,0.00,,,0.00,WUHU216DAVISVP2,2013-08-10 13:51:00,
2013-08-10 08:56:00,62.4,56.5,30.19,ENE,77,0.0,4.0,81,0.00,,,0.00,WUHU216DAVISVP2,2013-08-10 13:56:00,
2013-08-10 09:01:00,62.7,56.8,30.20,ENE,77,0.0,4.0,81,0.00,,,0.00,WUHU216DAVISVP2,2013-08-10 14:01:00,
2013-08-10 09:06:00,63.0,56.5,30.20,ESE,105,0.0,1.0,79,0.00,,,0.00,WUHU216DAVISVP2,2013-08-10 14:06:00,
2013-08-10 09:11:00,63.2,56.7,30.20,ESE,110,0.0,1.0,79,0.00,,,0.00,WUHU216DAVISVP2,2013-08-10 14:11:00,
2013-08-10 09:16:00,63.4,56.8,30.20,ESE,109,0.0,1.0,79,0.00,,,0.00,WUHU216DAVISVP2,2013-08-10 14:16:00,
2013-08-10 09:21:00,63.6,57.0,30.20,ESE,109,0.0,1.0,79,0.00,,,0.00,WUHU216DAVISVP2,2013-08-10 14:21:00,
2013-08-10 09:26:00,63.7,57.1,30.20,ESE,117,0.0,3.0,79,0.00,,,0.00,WUHU216DAVISVP2,2013-08-10 14:26:00,
2013-08-10 09:31:00,63.7,57.1,30.20,SE,136,0.0,3.0,79,0.00,,,0.00,WUHU216DAVISVP2,2013-08-10 14:31:00,
2013-08-10 09:36:00,64.0,57.4,30.20,SE,140,0.0,3.0,79,0.00,,,0.00,WUHU216DAVISVP2,2013-08-10 14:36:00,
2013-08-10 09:41:00,64.1,57.5,30.20,WSW,249,0.0,3.0,79,0.00,,,0.00,WUHU216DAVISVP2,2013-08-10 14:41:00,
2013-08-10 09:46:00,64.2,58.0,30.20,WSW,248,0.0,1.0,80,0.00,,,0.00,WUHU216DAVISVP2,2013-08-10 14:46:00,
2013-08-10 09:51:00,64.4,58.2,30.20,SSE,165,0.0,1.0,80,0.00,,,0.00,WUHU216DAVISVP2,2013-08-10 14:51:00,
2013-08-10 09:56:00,64.7,58.5,30.20,SSE,165,0.0,1.0,80,0.00,,,0.00,WUHU216DAVISVP2,2013-08-10 14:56:00,
2013-08-10 10:01:00,65.1,58.5,30.20,NW,307,0.0,1.0,79,0.00,,,0.00,WUHU216DAVISVP2,2013-08-10 15:01:00,
2013-08-10 10:06:00,65.5,58.9,30.20,SSE,167,0.0,1.0,79,0.00,,,0.00,WUHU216DAVISVP2,2013-08-10 15:06:00,
2013-08-10 10:11:00,66.0,59.0,30.19,ESE,105,1.0,3.0,78,0.00,,,0.00,WUHU216DAVISVP2,2013-08-10 15:11:00,
2013-08-10 10:16:00,66.2,59.6,30.19,SE,135,0.0,3.0,79,0.00,,,0.00,WUHU216DAVISVP2,2013-08-10 15:16:00,
2013-08-10 10:21:00,66.4,59.4,30.19,East,101,1.0,3.0,78,0.00,,,0.00,WUHU216DAVISVP2,2013-08-10 15:21:00,
2013-08-10 10:26:00,66.4,59.4,30.19,ESE,113,0.0,3.0,78,0.00,,,0.00,WUHU216DAVISVP2,2013-08-10 15:26:00,
2013-08-10 10:31:00,66.7,60.0,30.19,ESE,114,0.0,3.0,79,0.00,,,0.00,WUHU216DAVISVP2,2013-08-10 15:31:00,
2013-08-10 10:36:00,67.0,59.9,30.19,ESE,108,0.0,3.0,78,0.00,,,0.00,WUHU216DAVISVP2,2013-08-10 15:36:00,
2013-08-10 10:41:00,67.1,60.1,30.19,ESE,105,0.0,3.0,78,0.00,,,0.00,WUHU216DAVISVP2,2013-08-10 15:41:00,
2013-08-10 10:46:00,67.2,60.2,30.19,ESE,111,0.0,3.0,78,0.00,,,0.00,WUHU216DAVISVP2,2013-08-10 15:46:00,
2013-08-10 10:51:00,67.7,60.7,30.19,ESE,111,0.0,3.0,78,0.00,,,0.00,WUHU216DAVISVP2,2013-08-10 15:51:00,
2013-08-10 10:56:00,68.1,60.7,30.19,WSW,244,0.0,3.0,77,0.00,,,0.00,WUHU216DAVISVP2,2013-08-10 15:56:00,
2013-08-10 11:01:00,68.3,60.6,30.19,West,281,0.0,3.0,76,0.00,,,0.00,WUHU216DAVISVP2,2013-08-10 16:01:00,
2013-08-10 11:06:00,68.6,61.2,30.19,NE,39,1.0,3.0,77,0.00,,,0.00,WUHU216DAVISVP2,2013-08-10 16:06:00,
2013-08-10 11:11:00,69.2,61.8,30.19,NW,314,0.0,3.0,77,0.00,,,0.00,WUHU216DAVISVP2,2013-08-10 16:11:00,
2013-08-10 11:16:00,69.7,61.9,30.19,SE,143,0.0,3.0,76,0.00,,,0.00,WUHU216DAVISVP2,2013-08-10 16:16:00,
2013-08-10 11:21:00,70.3,61.4,30.18,WSW,249,0.0,3.0,73,0.00,,,0.00,WUHU216DAVISVP2,2013-08-10 16:21:00,
2013-08-10 11:26:00,70.5,62.0,30.18,ESE,110,0.0,3.0,74,0.00,,,0.00,WUHU216DAVISVP2,2013-08-10 16:26:00,
2013-08-10 11:31:00,71.1,61.8,30.18,West,280,0.0,1.0,72,0.00,,,0.00,WUHU216DAVISVP2,2013-08-10 16:31:00,
2013-08-10 11:36:00,71.7,62.7,30.18,SSW,211,0.0,1.0,73,0.00,,,0.00,WUHU216DAVISVP2,2013-08-10 16:36:00,
2013-08-10 11:41:00,72.2,62.1,30.18,SSE,153,0.0,1.0,70,0.00,,,0.00,WUHU216DAVISVP2,2013-08-10 16:41:00,
2013-08-10 11:46:00,72.7,62.5,30.18,WSW,252,0.0,1.0,70,0.00,,,0.00,WUHU216DAVISVP2,2013-08-10 16:46:00,
2013-08-10 11:51:00,73.3,62.7,30.18,East,99,2.0,4.0,69,0.00,,,0.00,WUHU216DAVISVP2,2013-08-10 16:51:00,
2013-08-10 11:56:00,73.5,63.5,30.18,East,95,0.0,4.0,71,0.00,,,0.00,WUHU216DAVISVP2,2013-08-10 16:56:00,
2013-08-10 12:01:00,73.5,62.3,30.18,ESE,120,1.0,4.0,68,0.00,,,0.00,WUHU216DAVISVP2,2013-08-10 17:01:00,
2013-08-10 12:06:00,73.5,63.3,30.18,ESE,121,0.0,4.0,70,0.00,,,0.00,WUHU216DAVISVP2,2013-08-10 17:06:00,
2013-08-10 12:11:00,73.4,62.0,30.18,WSW,252,0.0,3.0,67,0.00,,,0.00,WUHU216DAVISVP2,2013-08-10 17:11:00,
2013-08-10 12:16:00,73.2,62.2,30.18,WSW,252,0.0,3.0,68,0.00,,,0.00,WUHU216DAVISVP2,2013-08-10 17:16:00,
2013-08-10 12:21:00,73.3,62.3,30.18,West,265,1.0,3.0,68,0.00,,,0.00,WUHU216DAVISVP2,2013-08-10 17:21:00,
2013-08-10 12:26:00,73.2,62.6,30.18,West,259,0.0,3.0,69,0.00,,,0.00,WUHU216DAVISVP2,2013-08-10 17:26:00,
2013-08-10 12:31:00,73.2,62.2,30.18,West,265,1.0,5.0,68,0.00,,,0.00,WUHU216DAVISVP2,2013-08-10 17:31:00,
2013-08-10 12:36:00,73.1,62.1,30.18,WSW,248,0.0,5.0,68,0.00,,,0.00,WUHU216DAVISVP2,2013-08-10 17:36:00,
2013-08-10 12:41:00,72.9,61.9,30.17,SSW,213,0.0,7.0,68,0.00,,,0.00,WUHU216DAVISVP2,2013-08-10 17:41:00,
2013-08-10 12:46:00,73.2,62.6,30.17,SW,221,0.0,7.0,69,0.00,,,0.00,WUHU216DAVISVP2,2013-08-10 17:46:00,
2013-08-10 12:51:00,73.3,61.9,30.17,SSE,161,0.0,7.0,67,0.00,,,0.00,WUHU216DAVISVP2,2013-08-10 17:51:00,
2013-08-10 12:56:00,73.4,62.8,30.17,SSE,161,0.0,3.0,69,0.00,,,0.00,WUHU216DAVISVP2,2013-08-10 17:56:00,
2013-08-10 13:01:00,73.4,62.8,30.17,SSE,160,0.0,1.0,69,0.00,,,0.00,WUHU216DAVISVP2,2013-08-10 18:01:00,
2013-08-10 13:06:00,73.4,62.8,30.17,SSE,160,0.0,1.0,69,0.00,,,0.00,WUHU216DAVISVP2,2013-08-10 18:06:00,
2013-08-10 13:11:00,73.3,62.3,30.17,NW,309,0.0,3.0,68,0.00,,,0.00,WUHU216DAVISVP2,2013-08-10 18:11:00,
2013-08-10 13:16:00,73.1,62.1,30.17,NE,45,0.0,3.0,68,0.00,,,0.00,WUHU216DAVISVP2,2013-08-10 18:16:00,
2013-08-10 13:21:00,73.0,62.0,30.17,ENE,68,0.0,3.0,68,0.00,,,0.00,WUHU216DAVISVP2,2013-08-10 18:21:00,
2013-08-10 13:26:00,73.0,62.0,30.17,ESE,122,0.0,3.0,68,0.00,,,0.00,WUHU216DAVISVP2,2013-08-10 18:26:00,
2013-08-10 13:31:00,73.1,62.9,30.17,ESE,122,0.0,1.0,70,0.00,,,0.00,WUHU216DAVISVP2,2013-08-10 18:31:00,
2013-08-10 13:36:00,73.0,62.4,30.17,East,96,0.0,1.0,69,0.00,,,0.00,WUHU216DAVISVP2,2013-08-10 18:36:00,
2013-08-10 13:41:00,72.7,62.3,30.17,East,96,0.0,1.0,70,0.00,,,0.00,WUHU216DAVISVP2,2013-08-10 18:41:00,
2013-08-10 13:46:00,72.7,62.8,30.17,East,94,0.0,1.0,71,0.00,,,0.00,WUHU216DAVISVP2,2013-08-10 18:46:00,
2013-08-10 13:51:00,72.6,63.1,30.16,East,93,0.0,1.0,72,0.00,,,0.00,WUHU216DAVISVP2,2013-08-10 18:51:00,
2013-08-10 13:56:00,72.7,63.1,30.16,East,94,0.0,1.0,72,0.00,,,0.00,WUHU216DAVISVP2,2013-08-10 18:56:00,
2013-08-10 14:01:00,73.2,63.6,30.16,East,94,0.0,1.0,72,0.00,,,0.00,WUHU216DAVISVP2,2013-08-10 19:01:00,
2013-08-10 14:06:00,73.4,64.0,30.16,East,87,1.0,3.0,72,0.00,,,0.00,WUHU216DAVISVP2,2013-08-10 19:06:00,
2013-08-10 14:11:00,73.5,63.7,30.16,SE,129,0.0,3.0,71,0.00,,,0.00,WUHU216DAVISVP2,2013-08-10 19:11:00,
2013-08-10 14:16:00,73.5,63.7,30.15,ESE,120,0.0,3.0,71,0.00,,,0.00,WUHU216DAVISVP2,2013-08-10 19:16:00,
2013-08-10 14:21:00,73.6,64.2,30.15,SE,129,0.0,3.0,72,0.00,,,0.00,WUHU216DAVISVP2,2013-08-10 19:21:00,
2013-08-10 14:26:00,73.5,63.7,30.16,NE,41,0.0,3.0,71,0.00,,,0.00,WUHU216DAVISVP2,2013-08-10 19:26:00,
2013-08-10 14:31:00,73.2,63.8,30.15,ESE,120,1.0,3.0,72,0.00,,,0.00,WUHU216DAVISVP2,2013-08-10 19:31:00,
2013-08-10 14:36:00,73.1,64.1,30.16,ESE,114,0.0,3.0,73,0.00,,,0.00,WUHU216DAVISVP2,2013-08-10 19:36:00,
2013-08-10 14:41:00,73.0,63.2,30.16,NE,51,0.0,3.0,71,0.00,,,0.00,WUHU216DAVISVP2,2013-08-10 19:41:00,
2013-08-10 14:46:00,72.7,61.3,30.16,WSW,241,0.0,3.0,67,0.00,,,0.00,WUHU216DAVISVP2,2013-08-10 19:46:00,
2013-08-10 14:51:00,72.4,61.4,30.18,WNW,301,1.0,3.0,68,0.00,,,0.00,WUHU216DAVISVP2,2013-08-10 19:51:00,
2013-08-10 14:56:00,72.0,61.5,30.18,WSW,237,0.0,3.0,69,0.00,,,0.00,WUHU216DAVISVP2,2013-08-10 19:56:00,
2013-08-10 15:01:00,71.7,62.4,30.18,SW,231,0.0,3.0,72,0.02,,,0.02,WUHU216DAVISVP2,2013-08-10 20:01:00,
2013-08-10 15:06:00,70.6,63.2,30.19,NW,304,1.0,3.0,77,0.04,,,0.04,WUHU216DAVISVP2,2013-08-10 20:06:00,
2013-08-10 15:11:00,69.2,63.5,30.18,NW,326,0.0,3.0,82,0.10,,,0.11,WUHU216DAVISVP2,2013-08-10 20:11:00,
2013-08-10 15:16:00,68.0,63.3,30.17,NW,326,0.0,3.0,85,0.12,,,0.12,WUHU216DAVISVP2,2013-08-10 20:16:00,
2013-08-10 15:21:00,67.0,63.0,30.17,East,89,0.0,3.0,87,0.13,,,0.13,WUHU216DAVISVP2,2013-08-10 20:21:00,
2013-08-10 15:26:00,66.4,63.0,30.16,East,84,1.0,3.0,89,0.14,,,0.14,WUHU216DAVISVP2,2013-08-10 20:26:00,
2013-08-10 15:31:00,65.9,62.6,30.16,ENE,69,1.0,3.0,89,0.14,,,0.14,WUHU216DAVISVP2,2013-08-10 20:31:00,
2013-08-10 15:36:00,65.8,62.8,30.15,East,79,0.0,3.0,90,0.15,,,0.15,WUHU216DAVISVP2,2013-08-10 20:36:00,
2013-08-10 15:41:00,65.8,63.1,30.15,ESE,112,0.0,3.0,91,0.15,,,0.15,WUHU216DAVISVP2,2013-08-10 20:41:00,
2013-08-10 15:46:00,66.0,63.6,30.15,ESE,111,0.0,3.0,92,0.15,,,0.15,WUHU216DAVISVP2,2013-08-10 20:46:00,
2013-08-10 15:51:00,66.3,64.2,30.14,ESE,103,0.0,3.0,93,0.15,,,0.15,WUHU216DAVISVP2,2013-08-10 20:51:00,
2013-08-10 15:56:00,66.7,64.9,30.14,East,98,0.0,0.0,94,0.15,,,0.15,WUHU216DAVISVP2,2013-08-10 20:56:00,
2013-08-10 16:01:00,67.2,65.1,30.14,ESE,117,0.0,1.0,93,0.13,,,0.15,WUHU216DAVISVP2,2013-08-10 21:01:00,
2013-08-10 16:06:00,67.4,65.3,30.14,ENE,72,0.0,1.0,93,0.11,,,0.15,WUHU216DAVISVP2,2013-08-10 21:06:00,
2013-08-10 16:11:00,67.9,65.8,30.14,NE,47,0.0,1.0,93,0.04,,,0.15,WUHU216DAVISVP2,2013-08-10 21:11:00,
2013-08-10 16:16:00,68.4,66.3,30.14,ESE,104,0.0,1.0,93,0.03,,,0.15,WUHU216DAVISVP2,2013-08-10 21:16:00,
2013-08-10 16:21:00,68.6,65.8,30.14,SSE,155,0.0,3.0,91,0.02,,,0.15,WUHU216DAVISVP2,2013-08-10 21:21:00,
2013-08-10 16:26:00,68.6,65.5,30.13,SE,143,1.0,7.0,90,0.01,,,0.15,WUHU216DAVISVP2,2013-08-10 21:26:00,
2013-08-10 16:31:00,68.7,65.6,30.14,East,80,1.0,7.0,90,0.01,,,0.15,WUHU216DAVISVP2,2013-08-10 21:31:00,
2013-08-10 16:36:00,68.9,65.5,30.13,East,93,1.0,7.0,89,0.00,,,0.15,WUHU216DAVISVP2,2013-08-10 21:36:00,
2013-08-10 16:41:00,69.0,65.9,30.13,East,83,1.0,7.0,90,0.00,,,0.15,WUHU216DAVISVP2,2013-08-10 21:41:00,
2013-08-10 16:46:00,69.2,66.1,30.13,East,89,0.0,5.0,90,0.00,,,0.15,WUHU216DAVISVP2,2013-08-10 21:46:00,
2013-08-10 16:51:00,69.4,66.0,30.13,NNE,32,1.0,7.0,89,0.00,,,0.15,WUHU216DAVISVP2,2013-08-10 21:51:00,
2013-08-10 16:56:00,69.6,65.6,30.12,ENE,78,2.0,7.0,87,0.00,,,0.15,WUHU216DAVISVP2,2013-08-10 21:56:00,
2013-08-10 17:01:00,69.6,65.9,30.12,SE,124,0.0,7.0,88,0.00,,,0.15,WUHU216DAVISVP2,2013-08-10 22:01:00,
2013-08-10 17:06:00,69.5,65.5,30.12,NNE,33,0.0,7.0,87,0.00,,,0.15,WUHU216DAVISVP2,2013-08-10 22:06:00,
2013-08-10 17:11:00,69.5,65.5,30.13,East,89,1.0,4.0,87,0.00,,,0.15,WUHU216DAVISVP2,2013-08-10 22:11:00,
2013-08-10 17:16:00,69.4,65.0,30.13,NE,48,1.0,4.0,86,0.00,,,0.15,WUHU216DAVISVP2,2013-08-10 22:16:00,
2013-08-10 17:21:00,69.7,65.3,30.13,ENE,75,1.0,4.0,86,0.00,,,0.15,WUHU216DAVISVP2,2013-08-10 22:21:00,
2013-08-10 17:26:00,69.7,65.3,30.13,NNE,33,0.0,4.0,86,0.00,,,0.15,WUHU216DAVISVP2,2013-08-10 22:26:00,
2013-08-10 17:31:00,69.7,65.7,30.12,ESE,103,0.0,4.0,87,0.00,,,0.15,WUHU216DAVISVP2,2013-08-10 22:31:00,
2013-08-10 17:36:00,69.7,65.3,30.12,East,85,0.0,4.0,86,0.00,,,0.15,WUHU216DAVISVP2,2013-08-10 22:36:00,
2013-08-10 17:41:00,69.6,65.6,30.12,East,98,0.0,5.0,87,0.00,,,0.15,WUHU216DAVISVP2,2013-08-10 22:41:00,
2013-08-10 17:46:00,69.6,65.2,30.12,SE,137,0.0,5.0,86,0.00,,,0.15,WUHU216DAVISVP2,2013-08-10 22:46:00,
2013-08-10 17:51:00,69.6,65.2,30.11,East,87,0.0,5.0,86,0.00,,,0.15,WUHU216DAVISVP2,2013-08-10 22:51:00,
2013-08-10 17:56:00,69.5,65.5,30.11,East,101,4.0,5.0,87,0.00,,,0.15,WUHU216DAVISVP2,2013-08-10 22:56:00,
2013-08-10 18:01:00,69.5,65.1,30.11,ESE,113,1.0,4.0,86,0.00,,,0.15,WUHU216DAVISVP2,2013-08-10 23:01:00,
2013-08-10 18:06:00,69.5,65.5,30.11,East,100,1.0,7.0,87,0.00,,,0.15,WUHU216DAVISVP2,2013-08-10 23:06:00,
2013-08-10 18:11:00,69.7,65.7,30.11,ENE,77,0.0,7.0,87,0.00,,,0.15,WUHU216DAVISVP2,2013-08-10 23:11:00,
2013-08-10 18:16:00,69.7,65.3,30.11,ESE,119,1.0,7.0,86,0.00,,,0.15,WUHU216DAVISVP2,2013-08-10 23:16:00,
2013-08-10 18:21:00,69.6,65.2,30.11,East,99,1.0,7.0,86,0.00,,,0.15,WUHU216DAVISVP2,2013-08-10 23:21:00,
2013-08-10 18:26:00,69.6,65.6,30.11,East,90,0.0,5.0,87,0.00,,,0.15,WUHU216DAVISVP2,2013-08-10 23:26:00,
2013-08-10 18:31:00,69.6,65.6,30.11,ESE,103,0.0,5.0,87,0.00,,,0.15,WUHU216DAVISVP2,2013-08-10 23:31:00,
2013-08-10 18:36:00,69.6,65.6,30.10,East,98,0.0,5.0,87,0.00,,,0.15,WUHU216DAVISVP2,2013-08-10 23:36:00,
2013-08-10 18:41:00,69.7,65.7,30.10,East,96,0.0,1.0,87,0.00,,,0.15,WUHU216DAVISVP2,2013-08-10 23:41:00,
2013-08-10 18:46:00,69.6,65.2,30.10,East,86,0.0,0.0,86,0.00,,,0.15,WUHU216DAVISVP2,2013-08-10 23:46:00,
2013-08-10 18:52:00,69.6,65.2,30.09,ESE,108,1.0,4.0,86,0.00,,,0.15,WUHU216DAVISVP2,2013-08-10 23:52:00,
2013-08-10 18:57:00,69.7,65.3,30.08,SE,128,0.0,7.0,86,0.00,,,0.15,WUHU216DAVISVP2,2013-08-10 23:57:00,
2013-08-10 19:02:00,69.8,65.4,30.08,SE,129,0.0,7.0,86,0.00,,,0.15,WUHU216DAVISVP2,2013-08-11 00:02:00,
2013-08-10 19:07:00,69.8,65.4,30.08,East,98,2.0,7.0,86,0.00,,,0.15,WUHU216DAVISVP2,2013-08-11 00:07:00,
2013-08-10 19:12:00,69.8,65.4,30.08,ENE,77,0.0,7.0,86,0.00,,,0.15,WUHU216DAVISVP2,2013-08-11 00:12:00,
2013-08-10 19:17:00,69.7,65.3,30.08,ENE,76,1.0,5.0,86,0.00,,,0.15,WUHU216DAVISVP2,2013-08-11 00:17:00,
2013-08-10 19:22:00,69.4,65.4,30.08,ESE,106,1.0,5.0,87,0.00,,,0.15,WUHU216DAVISVP2,2013-08-11 00:22:00,
2013-08-10 19:27:00,69.2,65.2,30.08,SE,135,3.0,4.0,87,0.00,,,0.15,WUHU216DAVISVP2,2013-08-11 00:27:00,
2013-08-10 19:32:00,69.0,65.3,30.08,East,96,1.0,5.0,88,0.00,,,0.15,WUHU216DAVISVP2,2013-08-11 00:32:00,
2013-08-10 19:37:00,69.0,65.3,30.08,East,101,1.0,5.0,88,0.00,,,0.15,WUHU216DAVISVP2,2013-08-11 00:37:00,
2013-08-10 19:42:00,68.9,65.5,30.08,East,96,1.0,5.0,89,0.00,,,0.15,WUHU216DAVISVP2,2013-08-11 00:42:00,
2013-08-10 19:47:00,68.7,65.3,30.08,ESE,117,1.0,7.0,89,0.00,,,0.15,WUHU216DAVISVP2,2013-08-11 00:47:00,
2013-08-10 19:52:00,68.6,65.5,30.08,ESE,120,1.0,7.0,90,0.00,,,0.15,WUHU216DAVISVP2,2013-08-11 00:52:00,
2013-08-10 19:57:00,68.4,65.3,30.08,East,84,1.0,7.0,90,0.00,,,0.15,WUHU216DAVISVP2,2013-08-11 00:57:00,
2013-08-10 20:02:00,68.4,65.3,30.07,NE,56,3.0,7.0,90,0.00,,,0.15,WUHU216DAVISVP2,2013-08-11 01:02:00,
2013-08-10 20:07:00,68.4,65.6,30.07,East,83,3.0,5.0,91,0.00,,,0.15,WUHU216DAVISVP2,2013-08-11 01:07:00,
2013-08-10 20:12:00,68.3,65.5,30.07,East,99,0.0,5.0,91,0.00,,,0.15,WUHU216DAVISVP2,2013-08-11 01:12:00,
2013-08-10 20:17:00,67.9,64.2,30.07,ENE,77,1.0,5.0,88,0.00,,,0.15,WUHU216DAVISVP2,2013-08-11 01:17:00,
2013-08-10 20:22:00,67.7,64.0,30.08,NNE,31,0.0,5.0,88,0.01,,,0.16,WUHU216DAVISVP2,2013-08-11 01:22:00,
2013-08-10 20:27:00,67.5,64.8,30.09,NW,307,2.0,4.0,91,0.01,,,0.16,WUHU216DAVISVP2,2013-08-11 01:27:00,
2013-08-10 20:32:00,67.5,65.1,30.09,North,352,1.0,5.0,92,0.02,,,0.17,WUHU216DAVISVP2,2013-08-11 01:32:00,
2013-08-10 20:37:00,67.3,64.9,30.08,East,101,2.0,7.0,92,0.05,,,0.21,WUHU216DAVISVP2,2013-08-11 01:37:00,
2013-08-10 20:42:00,67.0,64.9,30.09,WSW,249,1.0,7.0,93,0.11,,,0.26,WUHU216DAVISVP2,2013-08-11 01:42:00,
2013-08-10 20:47:00,66.8,64.7,30.09,ESE,106,1.0,7.0,93,0.20,,,0.35,WUHU216DAVISVP2,2013-08-11 01:47:00,
2013-08-10 20:52:00,66.4,64.3,30.08,East,88,0.0,7.0,93,0.24,,,0.39,WUHU216DAVISVP2,2013-08-11 01:52:00,
2013-08-10 20:57:00,66.1,64.0,30.07,SE,131,0.0,3.0,93,0.25,,,0.40,WUHU216DAVISVP2,2013-08-11 01:57:00,
2013-08-10 21:02:00,65.8,63.7,30.08,East,82,1.0,3.0,93,0.25,,,0.40,WUHU216DAVISVP2,2013-08-11 02:02:00,
2013-08-10 21:07:00,65.6,63.5,30.08,East,98,1.0,3.0,93,0.26,,,0.41,WUHU216DAVISVP2,2013-08-11 02:07:00,
2013-08-10 21:12:00,65.5,63.4,30.08,SE,139,1.0,3.0,93,0.26,,,0.41,WUHU216DAVISVP2,2013-08-11 02:12:00,
2013-08-10 21:17:00,65.3,63.5,30.06,SE,146,1.0,3.0,94,0.27,,,0.42,WUHU216DAVISVP2,2013-08-11 02:17:00,
2013-08-10 21:22:00,65.2,63.4,30.07,SE,130,0.0,4.0,94,0.26,,,0.42,WUHU216DAVISVP2,2013-08-11 02:22:00,
2013-08-10 21:27:00,65.1,63.3,30.07,SE,131,1.0,4.0,94,0.26,,,0.42,WUHU216DAVISVP2,2013-08-11 02:27:00,
2013-08-10 21:32:00,65.0,63.2,30.06,East,89,3.0,4.0,94,0.25,,,0.42,WUHU216DAVISVP2,2013-08-11 02:32:00,
2013-08-10 21:37:00,65.0,63.2,30.06,SE,124,1.0,4.0,94,0.21,,,0.42,WUHU216DAVISVP2,2013-08-11 02:37:00,
2013-08-10 21:41:00,65.0,63.5,30.06,SE,136,0.0,4.0,95,0.17,,,0.42,WUHU216DAVISVP2,2013-08-11 02:41:00,
2013-08-10 21:46:00,65.0,63.5,30.06,SE,139,0.0,4.0,95,0.07,,,0.42,WUHU216DAVISVP2,2013-08-11 02:46:00,
2013-08-10 21:51:00,65.0,63.5,30.06,ESE,109,0.0,4.0,95,0.03,,,0.42,WUHU216DAVISVP2,2013-08-11 02:51:00,
2013-08-10 21:57:00,65.0,63.5,30.06,SE,131,1.0,3.0,95,0.02,,,0.42,WUHU216DAVISVP2,2013-08-11 02:57:00,
2013-08-10 22:02:00,65.0,63.5,30.06,SE,137,0.0,3.0,95,0.02,,,0.42,WUHU216DAVISVP2,2013-08-11 03:02:00,
2013-08-10 22:08:00,64.9,63.4,30.05,ESE,115,1.0,3.0,95,0.01,,,0.42,WUHU216DAVISVP2,2013-08-11 03:08:00,
2013-08-10 22:13:00,64.9,63.4,30.06,East,88,0.0,3.0,95,0.02,,,0.43,WUHU216DAVISVP2,2013-08-11 03:13:00,
2013-08-10 22:18:00,64.9,63.4,30.07,North,354,0.0,3.0,95,0.01,,,0.43,WUHU216DAVISVP2,2013-08-11 03:18:00,
2013-08-10 22:23:00,64.9,63.4,30.07,NW,309,0.0,3.0,95,0.01,,,0.43,WUHU216DAVISVP2,2013-08-11 03:23:00,
2013-08-10 22:28:00,64.9,63.7,30.08,NW,311,0.0,3.0,96,0.01,,,0.43,WUHU216DAVISVP2,2013-08-11 03:28:00,
2013-08-10 22:33:00,64.9,63.7,30.08,NW,310,0.0,3.0,96,0.01,,,0.43,WUHU216DAVISVP2,2013-08-11 03:33:00,
2013-08-10 22:38:00,64.9,63.7,30.08,WNW,291,0.0,0.0,96,0.02,,,0.44,WUHU216DAVISVP2,2013-08-11 03:38:00,
2013-08-10 22:44:00,65.0,63.8,30.08,WNW,301,0.0,0.0,96,0.02,,,0.44,WUHU216DAVISVP2,2013-08-11 03:44:00,
2013-08-10 22:49:00,65.0,63.8,30.08,WNW,300,0.0,0.0,96,0.02,,,0.44,WUHU216DAVISVP2,2013-08-11 03:49:00,
2013-08-10 22:54:00,65.0,63.8,30.08,SW,227,0.0,0.0,96,0.03,,,0.45,WUHU216DAVISVP2,2013-08-11 03:54:00,
2013-08-10 22:59:00,65.1,63.9,30.09,West,260,0.0,0.0,96,0.04,,,0.46,WUHU216DAVISVP2,2013-08-11 03:59:00,
2013-08-10 23:01:00,65.2,64.0,30.09,WNW,293,0.0,0.0,96,0.04,,,0.46,WUHU216DAVISVP2,2013-08-11 04:01:00,
2013-08-10 23:06:00,65.1,63.9,30.08,ESE,121,0.0,0.0,96,0.05,,,0.47,WUHU216DAVISVP2,2013-08-11 04:06:00,
2013-08-10 23:11:00,65.1,63.9,30.07,SE,141,0.0,0.0,96,0.05,,,0.48,WUHU216DAVISVP2,2013-08-11 04:11:00,
2013-08-10 23:16:00,65.1,63.9,30.08,SE,142,0.0,0.0,96,0.06,,,0.49,WUHU216DAVISVP2,2013-08-11 04:16:00,
2013-08-10 23:21:00,65.1,63.9,30.08,WSW,242,0.0,3.0,96,0.06,,,0.49,WUHU216DAVISVP2,2013-08-11 04:21:00,
2013-08-10 23:26:00,65.2,64.0,30.08,SSE,150,0.0,3.0,96,0.07,,,0.50,WUHU216DAVISVP2,2013-08-11 04:26:00,
2013-08-10 23:31:00,65.2,64.0,30.07,SE,137,0.0,3.0,96,0.07,,,0.50,WUHU216DAVISVP2,2013-08-11 04:31:00,
2013-08-10 23:36:00,65.3,64.1,30.09,SE,137,0.0,3.0,96,0.07,,,0.51,WUHU216DAVISVP2,2013-08-11 04:36:00,
2013-08-10 23:41:00,65.2,64.0,30.10,West,259,0.0,3.0,96,0.07,,,0.51,WUHU216DAVISVP2,2013-08-11 04:41:00,
2013-08-10 23:46:00,65.0,63.5,30.09,SW,222,0.0,4.0,95,0.08,,,0.52,WUHU216DAVISVP2,2013-08-11 04:46:00,
2013-08-10 23:51:00,64.7,63.2,30.09,SW,222,0.0,4.0,95,0.08,,,0.53,WUHU216DAVISVP2,2013-08-11 04:51:00,
2013-08-10 23:56:00,64.6,63.1,30.08,SW,223,0.0,4.0,95,0.09,,,0.54,WUHU216DAVISVP2,2013-08-11 04:56:00,